Location: Unspecified
(38.0989°N, 0.6729°W)
Time: 16:59:43
(UTC+02:00)

Hubble Space Telescope - Visible Passes

Search period start: 21 July 2018 00:00
Search period end: 31 July 2018 00:00
Orbit: 537 x 541 km, 28.5° (Epoch: 21 July)

Date Brightness Start Highest point End Pass type
(mag) Time Alt. Az. Time Alt. Az. Time Alt. Az.
21 Jul 3.1 04:41:17 13° SE 04:41:17 13° SE 04:42:00 10° SE visible
21 Jul 2.5 06:16:45 10° SW 06:19:27 17° SSW 06:22:08 10° SSE visible
22 Jul 2.6 06:07:09 12° SW 06:08:59 15° SSW 06:11:23 10° SSE visible
23 Jul 2.7 05:57:50 13° SSW 05:58:30 13° SSW 06:00:29 10° SSE visible
24 Jul 2.9 05:48:42 11° S 05:48:42 11° S 05:49:17 10° S visible
29 Jul 2.8 22:01:23 10° S 22:03:00 12° SSE 22:04:16 11° SE visible
30 Jul 2.7 21:50:20 10° SSW 21:52:31 14° SSE 21:54:42 10° SE visible
30 Jul 3.3 23:29:56 10° SW 23:30:10 11° SW 23:30:10 11° SW visible
